Lancaster, PA

6:26 AM EDT on April 28, 2017 (GMT -0400)
Lancaster

Weather History for KLNS - November, 2012

Change the Weather History Date:

Thursday, November 29, 2012

  Actual Average Record
Temperature  
Mean Temperature 34 °F -  
Max Temperature 43 °F 51 °F 69 °F (1998)
Min Temperature 26 °F 33 °F 21 °F (2013)
Degree Days  
Heating Degree Days 30    
Moisture  
Dew Point 22 °F    
Average Humidity 64    
Maximum Humidity 79    
Minimum Humidity 47    
Precipitation  
Precipitation 0.00 in - - ()
Sea Level Pressure  
Sea Level Pressure 30.36 in    
Wind  
Wind Speed 4 mph (West)    
Max Wind Speed 13 mph    
Max Gust Speed 20 mph    
Visibility 7 miles    
Events      
Averages and records for this station are not official NWS values.
T = Trace of Precipitation, MM = Missing Value Source: NWS Daily Summary

Daily Weather History Graph

Daily Weather History Graph

Search for Another Location

Airport or City:

Trip Planner

Search our weather history database for the weather conditions in past years. The results will help you decide how hot, cold, wet, or windy it might be!

Date:

Astronomy

Nov. 29, 2012 Rise Set
Actual Time 7:06 AM EST 4:40 PM EST
Civil Twilight 6:36 AM EST 5:10 PM EST
Nautical Twilight 6:03 AM EST 5:44 PM EST
Astronomical Twilight 5:30 AM EST 6:16 PM EST
Moon 5:41 PM EST (11/29) 7:51 AM EST (11/29)
Length of Visible Light 10h 33m
Length of Day
9h 33m
Full, 99% of the Moon is Illuminated
Nov 29
Full
Dec 6
Last Quarter
Dec 13
New
Dec 20
First Quarter
Dec 28
Full

Hourly Weather History & Observations

Time (EST) Temp. Windchill Dew Point Humidity Pressure Visibility Wind Dir Wind Speed Gust Speed Precip Events Conditions
12:53 AM 28.9 °F 25.2 °F 19.0 °F 67% 30.35 in 9.0 mi West 3.5 mph - N/A   Clear
1:53 AM 28.0 °F - 19.0 °F 69% 30.35 in 9.0 mi Calm Calm - N/A   Clear
2:53 AM 26.1 °F 20.5 °F 19.0 °F 75% 30.35 in 8.0 mi West 4.6 mph - N/A   Clear
3:53 AM 26.1 °F 20.5 °F 18.0 °F 71% 30.35 in 8.0 mi West 4.6 mph - N/A   Clear
4:53 AM 27.0 °F 23.0 °F 19.0 °F 72% 30.35 in 8.0 mi West 3.5 mph - N/A   Clear
5:53 AM 26.1 °F 19.4 °F 18.0 °F 71% 30.36 in 8.0 mi West 5.8 mph - N/A   Clear
7:53 AM 27.0 °F 19.5 °F 21.0 °F 78% 30.38 in 5.0 mi WNW 6.9 mph - N/A   Haze
8:53 AM 30.0 °F 25.2 °F 24.1 °F 79% 30.40 in 4.0 mi WNW 4.6 mph - N/A   Haze
9:53 AM 34.0 °F 31.0 °F 26.1 °F 73% 30.42 in 5.0 mi West 3.5 mph - N/A   Haze
10:53 AM 37.9 °F 31.5 °F 26.1 °F 62% 30.42 in 6.0 mi West 9.2 mph - N/A   Haze
11:53 AM 41.0 °F 33.9 °F 26.1 °F 55% 30.40 in 7.0 mi West 12.7 mph - N/A   Clear
12:53 PM 42.1 °F 36.6 °F 25.0 °F 51% 30.38 in 8.0 mi West 9.2 mph 19.6 mph N/A   Clear
1:53 PM 43.0 °F 36.8 °F 24.1 °F 47% 30.35 in 8.0 mi West 11.5 mph - N/A   Clear
2:53 PM 43.0 °F 38.2 °F 24.1 °F 47% 30.33 in 8.0 mi WSW 8.1 mph - N/A   Clear
3:53 PM 42.1 °F 37.1 °F 23.0 °F 47% 30.34 in 8.0 mi West 8.1 mph - N/A   Clear
4:53 PM 39.9 °F 37.8 °F 23.0 °F 51% 30.32 in 8.0 mi SW 3.5 mph - N/A   Clear
5:53 PM 39.0 °F - 21.9 °F 50% 30.34 in 9.0 mi Calm Calm - N/A   Clear
6:53 PM 36.0 °F - 21.9 °F 57% 30.34 in 9.0 mi Calm Calm - N/A   Clear
7:53 PM 33.1 °F - 23.0 °F 66% 30.34 in 9.0 mi Calm Calm - N/A   Clear
8:53 PM 32.0 °F - 21.9 °F 66% 30.35 in 8.0 mi Calm Calm - N/A   Clear
9:53 PM 30.0 °F - 21.9 °F 72% 30.35 in 6.0 mi Calm Calm - N/A   Haze
10:53 PM 30.9 °F - 21.9 °F 69% 30.34 in 7.0 mi Calm Calm - N/A   Clear
11:53 PM 30.0 °F - 21.9 °F 72% 30.34 in 6.0 mi Calm Calm - N/A   Haze